When you browse on this site, cookies collect data to enhance your experience and personalize the content and advertising you see.
Visit our Privacy Policy to learn more. By continuing to use the site, you agree to this use of cookies and data.
  • In Romania
  • List of Countries
  • For 7 days
  • Water Temperature
  • Satellite Maps
  • Weather Map
  • Weather Widgets
  • user-avatar
    Login

    Hourly Weather Malaya Popiha

    Today, 21 April, Sunday

    Time Temperature Precipitation Wind Pressure Humidity
    00:00 +3°C° 0 mm 1 mps 751 mmHg 90%
    01:00 +2°C° 0 mm 1 mps 751 mmHg 92%
    02:00 +2°C° 0 mm 1 mps 751 mmHg 93%
    03:00 +2°C° 0 mm 1 mps 752 mmHg 94%
    04:00 +2°C° 0 mm 1 mps 752 mmHg 94%
    05:00 +2°C° 0 mm 1 mps 752 mmHg 95%
    06:00 +4°C° 0 mm 1 mps 752 mmHg 88%
    07:00 +6°C° 0 mm 1 mps 752 mmHg 81%
    08:00 +8°C° 0 mm 1 mps 753 mmHg 75%
    09:00 +9°C° 0 mm 1 mps 753 mmHg 68%
    10:00 +11°C° 0 mm 1 mps 753 mmHg 61%
    11:00 +13°C° 0 mm 1 mps 753 mmHg 54%
    12:00 +14°C° 0 mm 1 mps 753 mmHg 51%
    13:00 +13°C° 0 mm 0 mps 753 mmHg 48%
    14:00 +14°C° 0 mm 0 mps 752 mmHg 44%
    15:00 +14°C° 0 mm 0 mps 752 mmHg 46%
    16:00 +14°C° 0 mm 1 mps 752 mmHg 47%
    17:00 +13°C° 0 mm 1 mps 752 mmHg 48%
    18:00 +12°C° 0 mm 1 mps 752 mmHg 55%
    19:00 +10°C° 0 mm 1 mps 752 mmHg 61%
    20:00 +7°C° 0 mm 0 mps 752 mmHg 67%
    21:00 +7°C° 0 mm 0 mps 752 mmHg 69%
    22:00 +6°C° 0 mm 0 mps 752 mmHg 71%
    23:00 +6°C° 0 mm 0 mps 752 mmHg 73%

    Tomorrow, 22 April, Monday

    Time Temperature Precipitation Wind Pressure Humidity
    00:00 +6°C° 0 mm 0 mps 752 mmHg 75%
    01:00 +5°C° 0 mm 0 mps 752 mmHg 78%
    02:00 +5°C° 0 mm 0 mps 753 mmHg 80%
    03:00 +6°C° 0 mm 1 mps 753 mmHg 81%
    04:00 +6°C° 0 mm 1 mps 753 mmHg 82%
    05:00 +5°C° 0 mm 1 mps 753 mmHg 83%
    06:00 +7°C° 0 mm 1 mps 753 mmHg 76%
    07:00 +9°C° 0 mm 1 mps 753 mmHg 68%
    08:00 +11°C° 0 mm 1 mps 753 mmHg 61%
    09:00 +13°C° 0 mm 2 mps 753 mmHg 55%
    10:00 +14°C° 0 mm 2 mps 753 mmHg 50%
    11:00 +16°C° 0 mm 2 mps 753 mmHg 45%
    12:00 +16°C° 0 mm 2 mps 753 mmHg 43%
    13:00 +17°C° 0 mm 3 mps 752 mmHg 41%
    14:00 +17°C° 0 mm 3 mps 752 mmHg 39%
    15:00 +17°C° 0 mm 3 mps 752 mmHg 42%
    16:00 +17°C° 0 mm 2 mps 751 mmHg 44%
    17:00 +16°C° 0 mm 2 mps 751 mmHg 46%
    18:00 +14°C° 0 mm 2 mps 751 mmHg 53%
    19:00 +13°C° 0 mm 2 mps 751 mmHg 60%
    20:00 +10°C° 0 mm 2 mps 751 mmHg 66%
    21:00 +9°C° 0 mm 2 mps 751 mmHg 69%
    22:00 +9°C° 0 mm 2 mps 752 mmHg 72%
    23:00 +8°C° 0 mm 2 mps 752 mmHg 75%

    Day after tomorrow, 23 April, Tuesday

    Time Temperature Precipitation Wind Pressure Humidity
    00:00 +8°C° 0 mm 2 mps 752 mmHg 77%
    01:00 +7°C° 0 mm 2 mps 752 mmHg 78%
    02:00 +7°C° 0 mm 2 mps 752 mmHg 80%
    03:00 +7°C° 0 mm 2 mps 752 mmHg 80%
    04:00 +7°C° 0 mm 2 mps 752 mmHg 79%
    05:00 +8°C° 0 mm 2 mps 752 mmHg 78%
    06:00 +9°C° 0 mm 3 mps 752 mmHg 74%
    07:00 +10°C° 0 mm 3 mps 753 mmHg 69%
    08:00 +11°C° 0 mm 3 mps 753 mmHg 65%
    09:00 +12°C° 0 mm 3 mps 753 mmHg 59%
    10:00 +13°C° 0 mm 4 mps 753 mmHg 53%
    11:00 +14°C° 0 mm 4 mps 753 mmHg 47%
    12:00 +15°C° 0 mm 4 mps 753 mmHg 44%
    13:00 +17°C° 0 mm 4 mps 753 mmHg 41%
    14:00 +17°C° 0 mm 5 mps 752 mmHg 38%
    15:00 +18°C° 0 mm 4 mps 752 mmHg 41%
    16:00 +17°C° 0 mm 3 mps 752 mmHg 43%
    17:00 +17°C° 0 mm 3 mps 752 mmHg 45%
    18:00 +14°C° 0 mm 3 mps 752 mmHg 51%
    19:00 +14°C° 0 mm 2 mps 752 mmHg 57%
    20:00 +12°C° 0 mm 2 mps 752 mmHg 64%
    21:00 +10°C° 0 mm 2 mps 752 mmHg 67%
    22:00 +9°C° 0 mm 2 mps 752 mmHg 70%
    23:00 +8°C° 0 mm 2 mps 752 mmHg 73%

    24 April, Wednesday

    Time Temperature Precipitation Wind Pressure Humidity
    00:00 +8°C° 0 mm 2 mps 753 mmHg 74%
    01:00 +7°C° 0 mm 2 mps 753 mmHg 76%
    02:00 +7°C° 0 mm 2 mps 753 mmHg 78%
    03:00 +7°C° 0 mm 2 mps 753 mmHg 77%
    04:00 +7°C° 0 mm 2 mps 753 mmHg 77%
    05:00 +6°C° 0 mm 2 mps 753 mmHg 76%
    06:00 +8°C° 0 mm 3 mps 754 mmHg 69%
    07:00 +10°C° 0 mm 3 mps 754 mmHg 61%
    08:00 +12°C° 0 mm 3 mps 754 mmHg 53%
    09:00 +14°C° 0 mm 3 mps 754 mmHg 49%
    10:00 +16°C° 0 mm 3 mps 754 mmHg 44%
    11:00 +18°C° 0 mm 4 mps 754 mmHg 40%
    12:00 +18°C° 0 mm 3 mps 754 mmHg 39%
    13:00 +19°C° 0 mm 3 mps 753 mmHg 38%
    14:00 +19°C° 0 mm 3 mps 753 mmHg 36%
    15:00 +19°C° 0 mm 3 mps 753 mmHg 39%
    16:00 +18°C° 0 mm 2 mps 753 mmHg 42%
    17:00 +18°C° 0 mm 2 mps 753 mmHg 44%
    18:00 +16°C° 0 mm 2 mps 753 mmHg 50%
    19:00 +14°C° 0 mm 2 mps 753 mmHg 56%
    20:00 +12°C° 0 mm 1 mps 753 mmHg 62%
    21:00 +12°C° 0 mm 1 mps 753 mmHg 64%
    22:00 +11°C° 0 mm 1 mps 753 mmHg 65%
    23:00 +10°C° 0 mm 1 mps 753 mmHg 67%

    25 April, Thursday

    Time Temperature Precipitation Wind Pressure Humidity
    00:00 +9°C° 0 mm 0 mps 753 mmHg 67%
    01:00 +8°C° 0 mm 0 mps 753 mmHg 68%
    02:00 +8°C° 0 mm 0 mps 753 mmHg 68%
    03:00 +8°C° 0 mm 0 mps 753 mmHg 69%
    04:00 +9°C° 0 mm 1 mps 753 mmHg 70%
    05:00 +9°C° 0 mm 1 mps 753 mmHg 71%
    06:00 +11°C° 0 mm 1 mps 753 mmHg 65%
    07:00 +13°C° 0 mm 1 mps 753 mmHg 58%
    08:00 +15°C° 0 mm 1 mps 753 mmHg 52%
    09:00 +18°C° 0 mm 1 mps 753 mmHg 46%
    10:00 +19°C° 0 mm 1 mps 753 mmHg 41%
    11:00 +20°C° 0 mm 2 mps 753 mmHg 36%
    12:00 +20°C° 0 mm 2 mps 752 mmHg 35%
    13:00 +21°C° 0 mm 2 mps 752 mmHg 35%
    14:00 +21°C° 0 mm 3 mps 751 mmHg 35%
    15:00 +20°C° 0 mm 2 mps 751 mmHg 38%
    16:00 +20°C° 0 mm 2 mps 750 mmHg 40%
    17:00 +20°C° 0 mm 2 mps 750 mmHg 43%
    18:00 +18°C° 0 mm 2 mps 750 mmHg 49%
    19:00 +16°C° 0 mm 1 mps 749 mmHg 55%
    20:00 +14°C° 0 mm 1 mps 749 mmHg 61%
    21:00 +13°C° 0 mm 1 mps 749 mmHg 63%
    22:00 +12°C° 0 mm 1 mps 749 mmHg 65%
    23:00 +12°C° 0 mm 1 mps 749 mmHg 66%

    26 April, Friday

    Time Temperature Precipitation Wind Pressure Humidity
    00:00 +11°C° 0 mm 1 mps 748 mmHg 68%
    01:00 +11°C° 0 mm 1 mps 748 mmHg 70%
    02:00 +10°C° 0 mm 1 mps 748 mmHg 71%
    03:00 +10°C° 0 mm 1 mps 748 mmHg 72%
    04:00 +9°C° 0 mm 2 mps 747 mmHg 74%
    05:00 +8°C° 0 mm 2 mps 747 mmHg 75%
    06:00 +12°C° 0 mm 2 mps 747 mmHg 69%
    07:00 +14°C° 0 mm 2 mps 746 mmHg 62%
    08:00 +16°C° 0 mm 2 mps 746 mmHg 56%
    09:00 +17°C° 0 mm 3 mps 746 mmHg 51%
    10:00 +19°C° 0 mm 3 mps 745 mmHg 46%
    11:00 +20°C° 0 mm 4 mps 745 mmHg 42%
    12:00 +20°C° 0 mm 4 mps 744 mmHg 41%
    13:00 +21°C° 0 mm 4 mps 744 mmHg 40%
    14:00 +21°C° 0 mm 5 mps 743 mmHg 39%
    15:00 +21°C° 0 mm 4 mps 742 mmHg 42%
    16:00 +20°C° 0 mm 3 mps 742 mmHg 45%
    17:00 +20°C° 0 mm 2 mps 741 mmHg 48%
    18:00 +18°C° 0.2 mm 2 mps 741 mmHg 54%
    19:00 +17°C° 0.2 mm 3 mps 741 mmHg 61%
    20:00 +14°C° 0.2 mm 3 mps 740 mmHg 67%
    21:00 +14°C° 0.9 mm 3 mps 740 mmHg 74%
    22:00 +13°C° 0.9 mm 3 mps 740 mmHg 80%
    23:00 +13°C° 0.9 mm 3 mps 740 mmHg 86%
    Show more